[[{"header":{"parameterUnit":"m.s-1","parameterCategory":1,"la1":30.2991,"la2":30.254,"lo1":-89.0895,"lo2":-89.0444,"dx":0.0017,"dy":0.0017,"nx":28,"ny":28,"refTime":"2022-11-07T03:00:00:Z","depth":0,"parameterNumber":2,"parameterNumberName":"U-component_of_WINDS"},"data":[0,0,0,0,0,0,0,0,0,0,0,0,0,0,0,0,0,0,0,0,0,0,0,0,0,0,0,0,0,0,0,0,0,0,0,0,0,0,0,0,0,0,0,0,0,0,0,0,0,0,0,0,0,0,0,0,0,0,-2.5029,-2.5029,0,-2.5024,-2.5024,-2.5024,-2.4994,-2.4994,-2.4993,-2.4992,-2.4988,-2.4988,-2.4989,0,0,0,0,0,0,0,0,0,0,0,0,0,-2.5017,-2.5017,-2.5029,-2.5029,-2.5029,-2.5024,-2.5024,-2.5024,-2.4994,-2.4994,-2.4993,-2.4992,-2.4987,-2.4988,-2.4989,0,0,0,0,0,0,0,0,0,0,0,0,0,-2.5018,-2.5017,-2.5029,-2.5014,-2.5012,-2.5024,-2.5024,-2.5024,-2.4995,-2.4993,-2.4992,-2.4991,-2.4987,-2.4988,-2.4989,-2.5015,0,0,-2.4991,-2.4992,0,0,0,0,0,0,0,0,-2.5018,-2.5018,-2.5016,-2.5015,-2.5013,-2.5009,-2.5018,-2.5021,-2.4995,-2.5001,-2.4992,-2.4991,-2.4996,-2.4996,-2.4997,-2.5015,-2.5015,-2.4991,-2.4992,-2.4992,-2.4992,0,0,0,0,0,0,0,-2.5018,-2.5018,-2.5027,-2.5016,-2.5015,-2.5008,-2.5007,-2.5018,-2.5005,-2.5001,-2.4999,-2.4998,-2.4995,-2.4996,-2.4997,-2.5015,-2.4991,-2.4992,-2.4993,-2.4993,-2.5057,-2.5058,0,0,0,0,0,0,-2.502,-2.5019,-2.5027,-2.5027,-2.5013,-2.5009,-2.5008,-2.5011,-2.5004,-2.5002,-2.4999,-2.4997,-2.4995,-2.4996,-2.4996,-2.5028,-2.4992,-2.4993,-2.4993,-2.5055,-2.5057,-2.5058,0,0,0,0,0,0,-2.5019,-2.5021,-2.5028,-2.5022,-2.5023,-2.501,-2.5014,-2.5012,-2.5013,-2.5003,-2.5001,-2.5003,-2.4995,-2.4995,-2.5011,-2.5027,-2.4993,-2.4994,-2.5054,-2.5056,-2.5057,-2.5091,0,0,0,0,0,0,-2.5019,-2.5021,-2.503,-2.5023,-2.5023,-2.5042,-2.5015,-2.5012,-2.5015,-2.5012,-2.5006,-2.5004,-2.4994,-2.501,-2.5012,-2.5028,-2.4995,-2.5052,-2.5055,-2.5057,-2.5088,-2.5094,-2.5098,0,0,0,0,0,-2.5019,-2.5039,-2.503,-2.5032,-2.5034,-2.5043,-2.5043,-2.503,-2.5016,-2.5026,-2.502,-2.5005,-2.5026,-2.5012,-2.5014,-2.503,-2.5051,-2.5054,-2.5057,-2.5086,-2.5093,-2.5098,0,0,0,0,0,0,-2.5048,-2.5038,-2.5028,-2.5047,-2.5046,-2.5038,-2.5049,-2.5037,-2.504,-2.5037,-2.5022,-2.5021,-2.5039,-2.5036,-2.5022,-2.5057,-2.5036,-2.5039,-2.5058,-2.5064,-2.5069,-2.5069,-2.4995,0,0,0,0,0,-2.5057,-2.5064,-2.5055,-2.5072,-2.5073,-2.5061,-2.5064,-2.5055,-2.5053,-2.5053,-2.5048,-2.5048,-2.5054,-2.5059,-2.5064,-2.5088,-2.5087,-2.5101,-2.5106,-2.511,-2.5113,-2.5127,-2.5133,-2.5067,-2.5067,-2.5067,0,0,-2.5075,-2.507,-2.5076,-2.5078,-2.5077,-2.5086,-2.5061,-2.5071,-2.5078,-2.5055,-2.5069,-2.5066,-2.5065,-2.5086,-2.5094,-2.5084,-2.5131,-2.5113,-2.5117,-2.5117,-2.513,-2.5137,-2.5142,-2.5069,-2.5069,-2.5068,0,0,-2.5112,-2.5109,-2.5124,-2.5123,-2.5121,-2.5114,-2.5117,-2.5112,-2.5109,-2.5123,-2.5107,-2.5115,-2.5127,-2.5127,-2.5129,-2.5169,-2.5156,-2.5172,-2.5197,-2.5212,-2.5217,-2.5221,-2.5237,-2.5243,-2.5175,-2.5175,-2.5175,0,-2.5135,-2.5147,-2.5133,-2.5145,-2.5147,-2.5127,-2.5143,-2.5143,-2.5143,-2.5146,-2.5134,-2.5149,-2.5147,-2.5168,-2.5178,-2.518,-2.5185,-2.5172,-2.5217,-2.5222,-2.5226,-2.524,-2.5246,-2.5177,-2.5176,-2.5176,-2.5176,0,-2.5176,-2.5185,-2.5197,-2.5198,-2.5202,-2.5215,-2.5205,-2.5211,-2.5201,-2.5196,-2.5212,-2.5209,-2.5215,-2.5219,-2.521,-2.524,-2.5234,-2.522,-2.5199,-2.5234,-2.5248,-2.5253,-2.5179,-2.5179,-2.5178,-2.5178,0,0,-2.523,-2.5224,-2.5229,-2.523,-2.5228,-2.5235,-2.5249,-2.5254,-2.526,-2.5261,-2.5273,-2.5285,-2.5273,-2.5275,-2.5266,-2.5278,-2.5312,-2.5263,-2.5263,-2.5273,-2.5347,-2.5358,-2.5365,-2.5304,-2.5305,-2.5306,-2.5348,0,-2.5266,-2.5288,-2.5278,-2.5302,-2.5311,-2.5293,-2.5306,-2.5306,-2.5302,-2.531,-2.5305,-2.5314,-2.5297,-2.5298,-2.531,-2.5306,-2.5327,-2.5302,-2.5316,-2.5317,-2.5317,-2.5372,-2.5382,-2.5422,-2.5353,-2.5354,-2.5354,0,-2.5311,-2.5315,-2.534,-2.5338,-2.5342,-2.5353,-2.5358,-2.5365,-2.5366,-2.5363,-2.5366,-2.5355,-2.537,-2.535,-2.5371,-2.5354,-2.5359,-2.5359,-2.536,-2.5361,-2.5338,-2.5375,-2.5434,-2.5441,-2.5362,-2.5362,-2.5361,0,-2.5349,-2.5361,-2.5378,-2.5379,-2.5377,-2.5386,-2.5385,-2.5385,-2.539,-2.5395,-2.5398,-2.5405,-2.5409,-2.5415,-2.5407,-2.5392,-2.543,-2.5408,-2.5428,-2.5428,-2.5436,-2.5436,-2.5498,-2.5439,-2.5439,-2.5439,-2.5439,0,-2.5391,-2.5408,-2.5396,-2.5406,-2.5425,-2.5413,-2.5432,-2.543,-2.543,-2.5441,-2.5427,-2.5437,-2.5425,-2.5435,-2.5429,-2.5448,-2.545,-2.5448,-2.5447,-2.545,-2.545,-2.5453,-2.545,-2.544,-2.544,-2.544,-2.5439,0,-2.5437,-2.5429,-2.5447,-2.5444,-2.5443,-2.5458,-2.5455,-2.5466,-2.5461,-2.5475,-2.5478,-2.5471,-2.5483,-2.5475,-2.5486,-2.5482,-2.5508,-2.5502,-2.5508,-2.5506,-2.5527,-2.5526,-2.5594,-2.5603,-2.5537,-2.5538,-2.5538,0,-2.5464,-2.5476,-2.5475,-2.5481,-2.5482,-2.5492,-2.5497,-2.5487,-2.5493,-2.5497,-2.5507,-2.5517,-2.5525,-2.5544,-2.5541,-2.555,-2.5545,-2.5568,-2.5546,-2.555,-2.5546,-2.5546,-2.5548,-2.5572,-2.5573,-2.5574,-2.5574,0,-2.5514,-2.551,-2.5518,-2.5525,-2.5532,-2.5537,-2.5541,-2.5547,-2.5537,-2.5545,-2.5557,-2.5563,-2.5575,-2.5586,-2.5594,-2.5594,-2.5584,-2.5581,-2.5587,-2.559,-2.5594,-2.5594,-2.5521,-2.558,-2.5579,-2.5579,-2.5578,-2.5578,-2.5551,-2.5563,-2.5564,-2.5574,-2.5576,-2.5581,-2.5591,-2.5589,-2.5598,-2.5607,-2.5601,-2.5615,-2.5618,-2.5628,-2.563,-2.5642,-2.5633,-2.564,-2.5642,-2.5645,-2.5648,-2.5592,-2.5644,-2.5643,-2.5643,-2.5643,-2.5643,0,-2.5601,-2.5602,-2.5611,-2.5618,-2.5626,-2.5615,-2.562,-2.5628,-2.5641,-2.5644,-2.5653,-2.5667,-2.5678,-2.5677,-2.5687,-2.5697,-2.5693,-2.57,-2.57,-2.5701,-2.5655,-2.565,-2.5704,-2.5704,-2.5704,-2.5704,-2.5704,-2.5704,-2.5628,-2.5647,-2.5644,-2.5665,-2.5665,-2.5679,-2.5683,-2.5688,-2.5691,-2.5708,-2.5717,-2.5716,-2.5718,-2.5729,-2.574,-2.5739,-2.5744,-2.5754,-2.5752,-2.5709,-2.5703,-2.5698,-2.5693,-2.5755,-2.5755,-2.5796,-2.5797,-2.5797]},{"header":{"parameterUnit":"m.s-1","parameterCategory":1,"la1":30.2991,"la2":30.254,"lo1":-89.0895,"lo2":-89.0444,"dx":0.0017,"dy":0.0017,"nx":28,"ny":28,"refTime":"2022-11-07T03:00:00:Z","depth":0,"parameterNumber":3,"parameterNumberName":"V-component_of_WINDS"},"data":[0,0,0,0,0,0,0,0,0,0,0,0,0,0,0,0,0,0,0,0,0,0,0,0,0,0,0,0,0,0,0,0,0,0,0,0,0,0,0,0,0,0,0,0,0,0,0,0,0,0,0,0,0,0,0,0,0,0,-0.5535,-0.5535,0,-0.5557,-0.5557,-0.5558,-0.5496,-0.5494,-0.5492,-0.549,-0.5514,-0.5516,-0.5519,0,0,0,0,0,0,0,0,0,0,0,0,0,-0.5439,-0.5441,-0.5535,-0.5535,-0.5535,-0.5557,-0.5558,-0.5558,-0.5496,-0.5494,-0.5492,-0.5489,-0.5513,-0.5516,-0.5519,0,0,0,0,0,0,0,0,0,0,0,0,0,-0.5473,-0.5442,-0.5535,-0.5507,-0.5505,-0.5557,-0.5558,-0.5558,-0.5497,-0.5494,-0.5491,-0.5488,-0.5512,-0.5516,-0.5519,-0.5599,0,0,-0.553,-0.5532,0,0,0,0,0,0,0,0,-0.5471,-0.5477,-0.5511,-0.5509,-0.5507,-0.5521,-0.5532,-0.5572,-0.5498,-0.55,-0.549,-0.5487,-0.5519,-0.5522,-0.5532,-0.56,-0.5601,-0.5531,-0.5533,-0.5535,-0.5536,0,0,0,0,0,0,0,-0.5469,-0.5476,-0.5544,-0.5512,-0.5509,-0.5494,-0.5496,-0.554,-0.5525,-0.55,-0.5495,-0.5499,-0.5517,-0.5529,-0.5532,-0.5602,-0.5531,-0.5534,-0.5536,-0.5538,-0.5738,-0.5741,0,0,0,0,0,0,-0.547,-0.5474,-0.5543,-0.5544,-0.5482,-0.5498,-0.55,-0.5519,-0.5525,-0.5523,-0.5501,-0.5496,-0.5524,-0.5528,-0.5533,-0.5629,-0.5535,-0.5538,-0.554,-0.5735,-0.5739,-0.5742,0,0,0,0,0,0,-0.5468,-0.5477,-0.5542,-0.5508,-0.5515,-0.5503,-0.5525,-0.5521,-0.5533,-0.5526,-0.5523,-0.5516,-0.5522,-0.5528,-0.5584,-0.5629,-0.554,-0.5543,-0.5731,-0.5736,-0.5741,-0.582,0,0,0,0,0,0,-0.5466,-0.5477,-0.5507,-0.5509,-0.5517,-0.5593,-0.5528,-0.5524,-0.5539,-0.5533,-0.5539,-0.5537,-0.552,-0.5579,-0.5587,-0.5632,-0.5546,-0.5727,-0.5734,-0.5739,-0.5813,-0.5827,-0.5838,0,0,0,0,0,-0.5463,-0.5528,-0.5509,-0.5517,-0.5555,-0.5595,-0.56,-0.5579,-0.5543,-0.5574,-0.5569,-0.5537,-0.5621,-0.5585,-0.5594,-0.5641,-0.5725,-0.5732,-0.5739,-0.5808,-0.5824,-0.5838,0,0,0,0,0,0,-0.5532,-0.5528,-0.5506,-0.5574,-0.5586,-0.5585,-0.5623,-0.5597,-0.5619,-0.5611,-0.5584,-0.5586,-0.5648,-0.5649,-0.5608,-0.5719,-0.5667,-0.5676,-0.5716,-0.5732,-0.5744,-0.5744,-0.5549,0,0,0,0,0,-0.5554,-0.5588,-0.5582,-0.5643,-0.565,-0.5635,-0.5652,-0.5635,-0.5646,-0.565,-0.5649,-0.5661,-0.5691,-0.5711,-0.5737,-0.5812,-0.5814,-0.5849,-0.5861,-0.5871,-0.5881,-0.5922,-0.5938,-0.5766,-0.5766,-0.5766,0,0,-0.5603,-0.5605,-0.5627,-0.5657,-0.5663,-0.5699,-0.564,-0.5679,-0.5706,-0.5656,-0.571,-0.571,-0.5721,-0.5787,-0.5816,-0.579,-0.5928,-0.588,-0.5889,-0.5892,-0.5931,-0.5948,-0.5962,-0.5771,-0.577,-0.5769,0,0,-0.5709,-0.5713,-0.5765,-0.5773,-0.5784,-0.5774,-0.5786,-0.5789,-0.5787,-0.584,-0.5804,-0.5835,-0.5885,-0.5896,-0.5908,-0.6018,-0.599,-0.6027,-0.6093,-0.6134,-0.6148,-0.616,-0.6201,-0.6216,-0.6035,-0.6036,-0.6036,0,-0.5768,-0.582,-0.5795,-0.5838,-0.5852,-0.5808,-0.5861,-0.587,-0.5889,-0.5901,-0.587,-0.5934,-0.5938,-0.6008,-0.6035,-0.6045,-0.6059,-0.6027,-0.6148,-0.616,-0.617,-0.621,-0.6225,-0.604,-0.604,-0.6039,-0.6039,0,-0.5893,-0.5929,-0.597,-0.599,-0.6009,-0.6056,-0.6039,-0.6061,-0.6042,-0.6035,-0.609,-0.6093,-0.6121,-0.6135,-0.6116,-0.6202,-0.6186,-0.6152,-0.61,-0.6192,-0.6229,-0.6243,-0.6047,-0.6045,-0.6044,-0.6043,0,0,-0.6045,-0.605,-0.6066,-0.6075,-0.6084,-0.6112,-0.6157,-0.6184,-0.6205,-0.6218,-0.6257,-0.6301,-0.627,-0.6284,-0.6266,-0.6301,-0.6391,-0.6263,-0.6263,-0.6289,-0.6488,-0.6515,-0.6533,-0.6371,-0.6374,-0.6376,-0.6488,0,-0.6152,-0.6231,-0.621,-0.6289,-0.6323,-0.6282,-0.6321,-0.6331,-0.6326,-0.6355,-0.6348,-0.6381,-0.6337,-0.6345,-0.6378,-0.6373,-0.6431,-0.6364,-0.6409,-0.6411,-0.641,-0.6552,-0.6581,-0.6686,-0.6502,-0.6504,-0.6506,0,-0.6288,-0.6309,-0.6392,-0.6395,-0.6409,-0.6445,-0.6469,-0.6496,-0.6506,-0.65,-0.6515,-0.649,-0.6536,-0.6481,-0.6544,-0.65,-0.6516,-0.6517,-0.652,-0.6526,-0.6466,-0.6564,-0.6719,-0.6736,-0.6528,-0.6526,-0.6524,0,-0.6395,-0.6442,-0.6498,-0.6507,-0.6512,-0.6539,-0.6543,-0.655,-0.6568,-0.6588,-0.6599,-0.6624,-0.6638,-0.6658,-0.6641,-0.6602,-0.6707,-0.6651,-0.6705,-0.6706,-0.6731,-0.6731,-0.6894,-0.6737,-0.6737,-0.6737,-0.6736,0,-0.6519,-0.6572,-0.6547,-0.6582,-0.664,-0.6614,-0.6672,-0.6671,-0.6678,-0.6712,-0.6676,-0.6709,-0.6683,-0.6713,-0.67,-0.6755,-0.6761,-0.6758,-0.6755,-0.6764,-0.6764,-0.6776,-0.6769,-0.6741,-0.674,-0.6739,-0.6739,0,-0.6649,-0.6634,-0.6693,-0.6693,-0.6694,-0.6737,-0.6737,-0.677,-0.6761,-0.6805,-0.6814,-0.6801,-0.6835,-0.6819,-0.6854,-0.6845,-0.6918,-0.6903,-0.6915,-0.6912,-0.6968,-0.6964,-0.7147,-0.7171,-0.6996,-0.6998,-0.6999,0,-0.673,-0.677,-0.6774,-0.6795,-0.6801,-0.6834,-0.6852,-0.6828,-0.6848,-0.6863,-0.6894,-0.6925,-0.6949,-0.7006,-0.7,-0.7027,-0.7014,-0.7076,-0.7018,-0.7026,-0.7018,-0.7018,-0.7022,-0.7089,-0.7091,-0.7093,-0.7094,0,-0.6877,-0.6868,-0.6895,-0.692,-0.6943,-0.6961,-0.6977,-0.6995,-0.6972,-0.6996,-0.7031,-0.705,-0.7086,-0.7118,-0.7142,-0.7145,-0.7117,-0.7112,-0.7126,-0.7137,-0.7144,-0.7144,-0.695,-0.7109,-0.7107,-0.7106,-0.7105,-0.7105,-0.6987,-0.7021,-0.703,-0.7062,-0.7071,-0.7086,-0.7118,-0.7113,-0.7141,-0.717,-0.7153,-0.7194,-0.7204,-0.7233,-0.724,-0.7272,-0.7248,-0.7268,-0.7274,-0.728,-0.7289,-0.7136,-0.7276,-0.7276,-0.7275,-0.7275,-0.7275,0,-0.7135,-0.7138,-0.7168,-0.7191,-0.7216,-0.7185,-0.7201,-0.7224,-0.7261,-0.7272,-0.7297,-0.7337,-0.7368,-0.7364,-0.7392,-0.7419,-0.7407,-0.7427,-0.7427,-0.7428,-0.7308,-0.7294,-0.7437,-0.7437,-0.7437,-0.7437,-0.7437,-0.7437,-0.7215,-0.7272,-0.7264,-0.7325,-0.7327,-0.7368,-0.738,-0.7394,-0.7403,-0.745,-0.7475,-0.7472,-0.7478,-0.7506,-0.7533,-0.7531,-0.7544,-0.7571,-0.7564,-0.7453,-0.7437,-0.7421,-0.7408,-0.7573,-0.7573,-0.7683,-0.7684,-0.7684]}]]